Starlink 33919

operational
NORAD ID: 63699 Int'l Des: 2025-087 Owner: SPXS Country: US Constellation: starlink
LEOCIRCULAR

About Starlink 33919

Description loading...

Live Position

Loading 3D Globe...

Upcoming Passes

Altitude History

Altitude vs Time

uPlot chart will show altitude changes over time

Two-Line Element Set

1 63699U 25087C 25354.06516363 .00014664 00000-0 50616-3 0 9996
2 63699 53.1593 229.7717 0001462 85.0789 275.0378 15.30205981 37002
Epoch: Dec 20, 2025 • Age: 13 hours

Current Status

Altitude 480.4 km
Velocity 7.63 km/s
Sub-Earth Point -17.57°S, 106.63°E
Launch Date Apr 28, 2025
Age 0.6 years
Type internet

Technical Details

Classification Payload
Mass 575.00 kg
Dry Mass 530.00 kg
Total Mass 575.00 kg
Length 0.30 m
Diameter 4.10 m
Span 29.00 m
Shape Box + pan
Manufacturer SPXS
Bus Type Starlink V2MO
Phase Status In Orbit
Owner/State SPXS/US

Large Constellations

Loading constellations...